Temperature
15 15 16 16 16 16 15 15 14 14 14 14 14 13 13 14 14 13 13 13 13 13 13 13 12 12 13 12 12 12 12 12 12 12 12 11 11 11 11 11 11 11 11 11
15 16 16 15 15 15 15 15 14 14 14 14 14 13 13 13 13 12 12 12 13 12 12 12 12 12 12 12 12 12 12 12 11 11 11 11 11 11 11 11 10 10 10 10
13 14 15 14 14 14 14 14 14 14 14 13 12 12 12 12 12 12 12 12 12 12 12 12 12 12 12 12 11 11 11 11 11 11 11 11 10 10 10 10 10 10 10 9
12 14 14 14 14 14 14 14 13 13 13 13 12 13 13 13 13 12 12 12 12 12 12 11 11 11 11 11 11 11 11 11 11 10 10 10 10 10 10 10 9 9 9 9
11 12 12 13 14 14 14 13 13 12 12 12 12 12 11 12 12 12 12 12 12 12 11 11 11 11 11 11 11 10 10 10 10 10 10 9 9 9 9 9 9 9 9 8
11 12 12 13 14 14 14 12 12 12 11 11 11 9 10 12 12 12 12 11 11 11 11 11 11 10 10 10 10 10 10 9 9 9 9 9 9 9 9 8 8 8 8 8
10 11 11 12 13 14 13 12 13 12 12 11 11 11 12 12 12 12 11 11 11 11 10 10 10 10 10 9 9 9 9 9 9 9 8 8 8 8 8 8 8 8 8 8
10 10 11 12 12 12 12 13 13 13 13 12 12 12 11 11 11 11 11 11 10 10 10 9 9 9 9 9 8 8 8 8 8 8 8 8 8 8 8 7 7 7 7 7
10 11 11 13 13 13 13 13 13 13 12 12 12 11 11 11 11 10 10 10 10 9 9 9 9 8 8 8 8 8 8 8 7 7 7 7 7 7 7 7 7 7 6 6
9 10 11 12 12 12 13 12 12 12 12 12 11 11 10 10 10 10 10 9 9 9 8 8 8 8 8 7 7 7 7 7 7 7 7 7 7 6 6 6 6 6 6 6
9 9 10 11 12 12 12 12 12 12 12 11 11 10 10 10 9 9 9 9 8 8 8 8 8 7 7 7 7 6 6 6 6 6 6 6 6 6 6 6 5 5 5 5
9 10 9 11 11 11 11 11 11 11 11 11 11 10 9 9 9 9 9 8 8 8 8 7 7 7 7 6 6 6 6 6 5 5 5 5 5 5 5 5 5 5 5 5
11 12 11 11 11 11 11 11 11 11 11 10 10 10 9 9 8 8 8 8 7 7 7 7 6 6 6 6 6 6 5 5 5 5 5 4 4 4 4 5 5 4 4 4
11 11 10 10 10 11 11 10 10 10 10 10 9 9 8 8 8 7 7 7 7 7 6 6 6 6 5 5 5 5 5 5 4 4 4 4 4 4 4 4 4 4 4 4
10 10 10 10 10 10 10 10 9 9 9 9 9 8 8 8 7 7 7 7 6 6 6 6 5 5 5 5 5 5 4 4 4 4 4 3 3 3 3 3 3 3 3 3
10 10 10 10 9 9 9 9 9 8 8 8 8 8 7 7 7 6 6 6 6 5 5 5 5 5 4 4 4 4 4 4 4 3 3 3 3 3 3 3 3 3 3 3
9 9 9 9 8 8 8 8 8 8 8 8 7 7 7 6 6 6 5 5 5 5 5 4 4 4 4 4 4 4 4 3 3 3 3 3 3 2 2 2 2 2 2 2
9 9 9 8 8 8 8 8 8 7 7 7 7 7 6 6 5 5 5 4 4 4 4 4 4 4 4 4 3 3 3 3 3 3 3 2 2 2 2 2 2 2 2 2
8 8 8 8 8 8 7 7 7 7 7 6 6 6 6 5 5 5 4 4 4 4 3 3 3 3 3 3 3 3 3 3 2 2 2 2 2 2 2 1 1 1 1 1
7 7 7 7 7 7 7 7 6 6 6 6 6 5 5 5 4 4 4 3 3 3 3 3 3 3 2 2 2 2 2 2 2 2 2 2 1 1 1 1 1 1 1 1
7 7 6 6 6 6 6 6 6 6 5 5 5 5 4 4 4 3 3 3 3 3 2 2 2 2 2 2 2 2 2 2 2 2 1 1 1 1 1 1 1 1 1 1
6 6 6 6 6 6 6 5 5 5 5 5 5 4 4 4 3 3 3 2 2 2 2 2 2 1 1 1 1 1 1 1 1 1 1 1 1 1 0 0 0 0 0 0
6 6 6 5 5 5 5 5 5 5 4 4 4 4 3 3 3 2 2 2 2 2 1 1 1 1 1 1 1 1 1 1 1 1 1 0 0 0 0 0 0 0 0 0
5 5 5 5 5 5 5 4 4 4 4 4 3 3 3 2 2 2 2 1 1 1 1 1 1 1 1 1 0 0 0 0 0 0 0 0 0 0 0 -0 -0 -0 -0 -0
5 5 5 5 4 4 4 4 4 3 3 3 3 2 2 2 2 1 1 1 1 1 1 0 0 0 0 0 0 0 -0 -0 -0 -0 -0 -0 -0 -0 -0 -0 -0 -0 -0 -1
4 4 4 4 4 4 3 3 3 3 2 2 2 2 2 1 1 1 1 1 0 0 0 0 0 -0 -0 -0 -0 -0 -0 -0 -0 -0 -1 -1 -1 -1 -1 -1 -1 -1 -1 -1
4 4 4 3 3 3 3 3 3 2 2 2 1 1 1 1 1 0 0 0 -0 -0 -0 -0 -0 -0 -1 -1 -1 -1 -1 -1 -1 -1 -1 -1 -1 -1 -1 -1 -1 -1 -1 -1
Wind_Speed
6 6 4 4 5 4 5 7 8 7 6 7 7 6 6 5 5 4 4 3 3 2 1 1 1 1 1 0 0 1 1 1 2 2 1 1 1 1 1 1 1 1 1 1
4 4 3 2 4 3 5 4 4 3 4 5 2 3 3 4 5 4 3 3 3 2 2 2 2 1 1 0 0 1 1 0 1 1 0 1 1 1 1 1 1 1 1 2
3 3 2 3 3 3 3 3 5 6 6 2 2 3 5 5 5 4 3 3 3 3 3 3 3 2 2 1 0 1 1 1 1 1 1 1 1 1 1 2 1 2 3 2
2 1 5 5 3 3 3 2 2 2 2 4 4 4 3 4 5 4 3 3 2 2 2 2 2 1 1 1 1 1 1 1 2 1 1 1 1 1 2 2 2 2 3 3
2 3 5 5 3 2 4 3 2 2 2 2 3 4 2 1 3 5 4 3 3 2 2 2 2 1 1 1 1 1 1 1 1 1 1 1 1 2 3 2 2 3 3 3
3 3 5 5 4 1 3 2 3 2 3 3 3 1 4 3 2 2 2 2 2 1 2 2 1 2 3 1 1 1 1 1 1 1 1 1 2 2 2 2 3 3 3 3
4 4 5 5 3 2 3 5 3 4 4 5 4 5 4 3 2 3 3 2 2 3 2 1 1 2 2 1 1 2 1 1 1 1 1 1 1 2 2 2 2 3 3 3
3 3 6 3 3 4 6 2 2 3 4 4 2 1 2 3 3 3 3 2 2 3 2 1 2 2 2 1 2 1 1 1 2 2 2 2 1 2 2 2 2 3 3 4
5 5 3 2 3 2 3 2 2 3 2 3 2 1 1 2 2 3 3 2 2 2 2 1 1 2 1 2 1 1 1 1 2 3 3 2 2 2 2 2 2 3 3 3
1 2 2 0 1 2 1 1 1 2 3 4 2 2 1 2 2 2 2 2 2 2 2 1 1 1 1 1 0 1 1 2 2 2 3 3 2 2 2 2 3 3 3 3
2 4 2 2 1 1 1 0 1 1 2 4 4 3 2 3 2 2 2 2 2 2 2 1 0 1 1 0 1 1 1 2 2 2 2 3 3 3 3 3 4 3 3 3
6 6 4 5 4 2 1 0 1 1 1 2 4 4 3 4 3 3 2 2 2 2 2 1 1 1 1 0 1 1 1 1 2 2 2 2 3 4 5 4 6 5 4 4
5 4 3 3 2 1 2 1 1 1 3 3 2 3 4 3 2 2 2 2 2 2 2 2 1 1 1 1 1 1 1 1 1 2 2 2 3 3 4 5 6 6 6 6
2 1 2 3 3 2 1 1 0 0 1 3 3 3 3 2 2 2 3 3 2 2 2 1 1 2 2 1 1 1 1 2 2 2 2 2 3 3 3 3 4 4 5 7
4 3 4 3 2 1 1 1 1 1 1 1 3 3 3 3 3 2 2 2 2 1 1 1 1 2 2 1 1 1 2 2 2 2 2 2 2 3 3 3 3 3 3 5
3 1 1 1 2 2 1 1 1 1 1 2 2 2 3 3 2 1 1 2 2 2 2 2 2 3 2 1 1 2 2 3 2 1 2 2 2 2 2 3 3 3 3 4
3 3 3 3 3 3 3 3 3 2 2 3 3 3 2 2 1 0 0 1 2 2 2 2 2 2 2 1 2 2 2 2 3 2 2 2 2 2 2 2 3 3 3 4
5 5 4 4 4 3 3 2 2 2 2 3 3 3 3 2 2 2 1 1 0 0 1 2 2 1 1 2 2 2 1 1 2 2 2 2 2 2 2 2 3 3 3 4
2 2 3 3 4 4 3 2 2 2 2 2 3 3 2 2 2 2 1 1 1 1 3 3 2 1 1 2 2 1 1 1 1 2 2 2 2 2 2 3 3 3 3 3
1 1 2 2 2 2 2 2 2 1 2 2 3 2 2 2 2 2 1 1 2 2 3 2 0 0 1 2 1 0 1 1 1 2 2 2 2 2 3 3 3 3 3 3
1 1 1 1 1 1 2 3 3 2 2 2 3 4 3 2 2 1 1 1 2 1 1 1 0 1 1 1 1 0 1 1 1 2 2 2 2 2 2 3 3 3 3 3
1 1 1 1 1 1 1 2 2 2 2 2 2 3 3 2 2 1 0 1 2 1 0 0 1 1 1 1 0 0 1 1 1 1 1 2 2 2 3 3 3 3 3 3
2 2 2 2 2 2 1 1 2 2 2 2 2 2 3 2 2 2 1 2 1 1 1 1 2 2 2 1 1 0 1 1 1 1 1 2 2 2 2 3 3 3 3 3
2 2 2 2 2 3 2 1 1 1 2 2 2 2 2 2 1 0 1 0 1 1 1 1 2 1 2 1 1 1 1 1 1 1 1 2 2 2 2 2 3 3 3 3
2 2 2 3 3 2 2 2 2 2 2 1 1 1 1 1 1 0 0 0 1 1 1 2 2 2 1 0 0 1 1 1 1 1 1 1 2 2 2 2 3 3 3 3
2 2 2 2 2 2 2 2 2 1 1 1 1 1 1 1 1 1 1 1 1 1 1 1 1 1 1 1 1 1 1 1 2 2 2 2 2 2 2 3 3 3 3 3
2 1 2 2 1 1 2 2 2 2 2 2 1 0 1 1 1 1 1 1 1 1 1 1 1 1 1 1 1 1 1 1 1 1 1 2 2 2 3 3 3 3 4 4
Wind_Direction
240 241 214 233 247 225 200 200 205 224 218 235 229 201 189 180 169 156 157 164 171 173 172 158 146 117 104 12 24 114 123 161 212 229 226 236 251 257 254 248 247 233 251 270
275 246 228 263 267 239 221 207 202 203 246 246 217 145 148 161 159 158 163 174 169 158 160 181 186 175 123 91 43 101 108 188 219 217 235 249 251 248 263 277 285 270 253 266
259 280 352 270 245 208 203 198 183 216 239 198 139 168 183 178 168 173 179 177 177 181 195 204 203 184 174 193 104 82 78 310 271 222 236 254 270 287 274 270 271 271 259 257
218 43 233 246 245 197 186 226 188 176 192 175 189 189 185 169 164 171 178 177 189 194 200 205 202 201 178 97 90 78 30 327 310 269 245 273 277 272 265 255 252 258 266 262
158 210 267 290 279 210 184 253 252 192 179 140 91 61 4 220 171 178 184 188 194 192 177 160 165 159 110 60 57 51 357 324 329 324 268 269 267 267 263 257 260 261 267 260
160 188 236 254 273 287 112 267 288 182 172 169 112 125 252 238 185 164 160 156 149 115 91 102 142 121 111 93 59 301 283 284 296 325 288 261 267 275 274 259 257 264 276 271
193 219 256 270 278 96 164 239 245 180 168 165 185 210 220 195 179 162 149 144 123 106 103 106 96 113 116 123 235 260 287 322 340 333 299 274 273 284 289 280 278 273 278 284
171 199 254 265 133 169 210 209 174 166 165 172 196 195 160 163 166 154 137 120 113 111 88 59 76 105 119 214 251 266 346 351 329 318 315 335 314 295 288 283 284 282 288 295
186 208 249 189 173 196 157 157 177 162 171 155 137 147 162 166 164 151 142 136 123 123 105 46 50 102 157 255 287 8 12 335 315 320 325 321 300 289 292 283 274 277 276 284
228 273 295 303 52 64 84 161 197 163 155 147 152 166 164 165 154 145 145 146 137 120 112 44 346 9 222 240 176 87 355 315 313 317 319 319 311 292 276 267 262 266 267 276
254 276 323 307 270 240 300 7 109 103 162 162 155 170 184 184 179 173 166 164 154 154 161 199 284 312 307 234 118 82 320 305 310 308 306 309 309 300 284 262 263 267 258 254
238 234 213 245 250 238 191 237 178 144 178 166 163 176 180 183 189 178 170 163 151 165 178 210 247 292 307 273 150 133 333 307 297 298 300 307 309 320 322 308 309 301 298 291
234 245 223 234 242 224 186 211 218 207 192 181 171 166 164 169 178 169 160 164 178 201 212 213 223 260 279 263 174 168 239 276 286 296 300 304 304 303 313 327 331 325 315 306
246 236 282 265 246 234 196 211 183 63 170 160 151 142 142 145 155 166 183 195 200 200 210 205 222 258 269 248 194 219 252 277 293 273 280 289 295 296 293 298 313 323 329 324
267 240 236 251 249 233 177 122 88 69 122 130 135 141 149 157 177 196 201 181 163 176 225 243 250 270 283 271 243 245 256 266 262 273 286 289 294 298 302 299 301 311 324 329
251 258 226 214 227 230 201 171 184 228 208 177 161 167 171 169 178 193 193 168 164 196 226 233 255 268 271 260 262 259 257 290 310 297 286 286 289 295 301 303 304 307 309 309
223 242 239 228 232 236 228 222 213 219 211 194 187 175 153 141 134 147 231 216 197 211 216 219 253 276 272 252 240 250 255 271 305 309 284 279 285 289 295 300 301 299 296 302
216 219 211 198 201 222 235 232 211 201 213 210 176 158 160 171 187 216 234 234 180 288 259 256 262 286 290 278 255 243 237 244 254 268 282 291 302 299 301 300 299 300 302 307
231 229 222 212 210 201 200 211 205 201 206 177 168 178 183 179 181 198 184 163 185 251 275 277 299 348 293 289 316 225 223 251 274 282 282 314 322 309 305 304 304 303 305 314
263 254 238 225 207 187 188 192 180 188 203 176 163 159 161 171 178 182 175 205 232 243 263 278 307 279 288 286 348 224 244 256 270 280 288 293 296 302 304 305 306 305 308 310
270 272 236 194 200 205 195 179 167 185 204 181 170 177 184 186 182 168 157 253 292 290 280 331 344 284 286 293 360 16 307 280 271 268 278 291 301 306 309 311 314 315 316 315
227 216 213 183 162 224 208 164 155 164 163 162 157 160 159 157 147 131 178 238 261 290 30 298 276 292 336 13 33 4 310 287 279 278 281 294 299 305 310 314 317 321 321 317
227 209 206 198 189 191 152 131 137 139 136 135 139 141 145 151 156 156 256 293 277 331 17 293 292 328 16 39 37 8 331 317 305 292 286 291 293 297 303 311 313 316 317 319
235 219 208 198 154 137 139 163 138 121 120 121 122 127 130 124 66 307 229 292 10 15 8 308 317 346 37 51 35 4 322 303 300 297 303 311 316 315 311 313 315 316 316 317
227 197 170 155 151 166 174 147 103 89 93 93 80 71 87 147 169 202 94 19 359 20 345 314 327 347 20 5 346 307 287 279 292 311 315 316 315 317 318 319 320 318 318 315
190 180 177 175 167 164 158 145 140 149 138 112 77 74 76 78 91 85 74 47 23 21 1 333 333 345 358 340 324 324 315 315 329 331 320 316 318 318 317 319 320 318 317 314
142 142 129 109 104 125 140 150 155 165 162 154 144 131 114 91 78 66 57 43 22 11 1 360 9 29 31 21 7 356 349 338 331 327 325 320 318 314 313 315 316 317 320 320
Height
1509 1505 1504 1505 1504 1502 1506 1509 1514 1511 1510 1506 1503 1503 1503 1504 1505 1506 1507 1508 1508 1509 1510 1511 1512 1512 1512 1512 1512 1512 1512 1512 1512 1512 1511 1511 1510 1509 1509 1508 1508 1507 1507 1506
1508 1502 1502 1504 1502 1501 1502 1503 1506 1506 1507 1501 1501 1501 1502 1503 1504 1504 1505 1506 1506 1507 1508 1509 1509 1509 1509 1510 1510 1510 1510 1509 1509 1509 1508 1508 1507 1506 1506 1505 1505 1504 1503 1503
1514 1505 1503 1509 1503 1502 1502 1500 1501 1505 1503 1499 1501 1501 1501 1501 1502 1502 1503 1504 1504 1505 1506 1506 1507 1507 1507 1508 1508 1508 1507 1507 1506 1506 1505 1505 1504 1503 1503 1502 1501 1500 1500 1499
1514 1510 1515 1507 1496 1496 1498 1498 1497 1497 1498 1498 1498 1498 1499 1500 1500 1500 1501 1502 1502 1503 1504 1505 1505 1505 1506 1506 1506 1505 1505 1504 1503 1502 1502 1501 1501 1500 1499 1499 1498 1497 1496 1495
1516 1515 1511 1502 1496 1495 1498 1500 1497 1497 1497 1497 1497 1498 1499 1499 1499 1499 1500 1500 1500 1501 1502 1503 1503 1503 1503 1503 1503 1503 1502 1501 1500 1499 1499 1498 1497 1497 1496 1495 1494 1493 1492 1491
1514 1515 1515 1503 1494 1492 1495 1501 1496 1495 1496 1497 1497 1501 1499 1497 1498 1498 1498 1499 1499 1499 1500 1501 1501 1501 1501 1501 1500 1500 1499 1498 1498 1497 1496 1494 1494 1493 1492 1491 1490 1489 1488 1487
1512 1512 1507 1497 1492 1493 1504 1502 1494 1493 1493 1494 1495 1496 1495 1495 1496 1496 1496 1497 1497 1498 1498 1498 1499 1499 1498 1498 1498 1498 1497 1496 1495 1494 1493 1491 1490 1489 1488 1487 1486 1485 1484 1483
1511 1513 1509 1494 1493 1496 1496 1491 1492 1491 1492 1492 1493 1493 1493 1493 1493 1494 1494 1495 1495 1496 1496 1496 1496 1496 1496 1496 1496 1495 1494 1493 1492 1491 1490 1488 1487 1486 1484 1483 1482 1480 1479 1478
1502 1502 1494 1491 1491 1491 1490 1490 1490 1490 1490 1491 1491 1491 1491 1491 1491 1492 1492 1493 1493 1494 1494 1494 1494 1494 1494 1493 1493 1492 1491 1490 1489 1488 1486 1485 1483 1482 1480 1479 1478 1477 1475 1474
1498 1495 1492 1491 1490 1490 1490 1489 1489 1488 1488 1489 1489 1489 1489 1489 1490 1490 1490 1490 1491 1491 1491 1492 1492 1492 1492 1491 1490 1489 1488 1487 1486 1484 1483 1481 1480 1479 1477 1475 1474 1473 1471 1470
1497 1494 1491 1490 1490 1489 1489 1488 1487 1487 1487 1487 1487 1487 1488 1487 1488 1488 1488 1488 1489 1489 1489 1489 1489 1489 1489 1488 1487 1486 1485 1483 1482 1481 1480 1478 1477 1475 1474 1473 1472 1470 1468 1467
1494 1490 1490 1489 1488 1488 1487 1486 1485 1485 1484 1485 1485 1485 1485 1485 1485 1486 1486 1486 1486 1486 1486 1487 1487 1486 1486 1485 1484 1483 1482 1480 1479 1478 1476 1474 1473 1471 1470 1469 1468 1467 1465 1464
1487 1486 1486 1486 1486 1486 1485 1484 1484 1483 1482 1482 1482 1482 1482 1482 1483 1483 1483 1483 1483 1483 1483 1484 1483 1483 1482 1482 1481 1480 1479 1478 1476 1475 1473 1471 1469 1468 1466 1465 1464 1463 1461 1460
1485 1485 1484 1483 1483 1483 1482 1482 1482 1481 1481 1480 1480 1480 1480 1480 1481 1481 1481 1481 1481 1481 1481 1480 1480 1480 1479 1478 1477 1477 1476 1475 1473 1472 1470 1468 1467 1465 1463 1462 1460 1458 1457 1456
1481 1481 1481 1480 1480 1480 1480 1480 1479 1479 1478 1478 1478 1478 1478 1478 1478 1478 1478 1478 1478 1478 1477 1477 1477 1476 1476 1475 1474 1473 1472 1471 1470 1469 1467 1466 1464 1463 1461 1459 1458 1456 1454 1453
1478 1478 1478 1477 1477 1477 1477 1476 1476 1476 1476 1476 1476 1476 1476 1475 1475 1475 1475 1475 1475 1474 1474 1474 1473 1473 1472 1471 1471 1470 1469 1468 1467 1466 1464 1463 1461 1460 1458 1457 1455 1453 1452 1450
1475 1475 1475 1474 1474 1474 1474 1474 1474 1473 1473 1473 1473 1473 1473 1472 1472 1472 1472 1472 1472 1471 1471 1471 1470 1470 1469 1468 1467 1466 1466 1465 1464 1462 1461 1460 1459 1457 1456 1454 1453 1451 1450 1449
1472 1472 1471 1471 1471 1471 1471 1471 1471 1470 1470 1470 1470 1470 1470 1469 1469 1469 1469 1469 1469 1468 1468 1468 1467 1466 1465 1465 1464 1463 1462 1461 1460 1459 1459 1457 1456 1455 1453 1452 1450 1449 1447 1446
1468 1468 1468 1468 1468 1468 1468 1468 1468 1468 1468 1468 1467 1467 1467 1467 1466 1466 1466 1465 1465 1464 1464 1464 1464 1463 1462 1461 1461 1460 1459 1459 1458 1457 1456 1455 1454 1452 1451 1449 1448 1447 1445 1443
1465 1465 1465 1465 1465 1465 1465 1465 1465 1465 1465 1465 1465 1464 1464 1464 1464 1464 1463 1462 1462 1462 1461 1461 1460 1460 1459 1458 1458 1457 1457 1456 1455 1455 1454 1452 1451 1450 1448 1447 1446 1444 1443 1441
1463 1462 1462 1462 1462 1463 1463 1463 1462 1462 1462 1462 1462 1461 1461 1461 1461 1461 1460 1460 1460 1459 1459 1459 1458 1457 1457 1456 1456 1455 1454 1454 1453 1452 1451 1450 1449 1447 1446 1445 1443 1442 1441 1439
1460 1460 1460 1459 1460 1460 1460 1460 1460 1460 1460 1459 1459 1459 1459 1458 1459 1459 1458 1458 1457 1457 1457 1456 1456 1455 1455 1454 1453 1453 1452 1451 1451 1450 1449 1448 1446 1445 1444 1443 1441 1440 1438 1437
1458 1458 1457 1457 1457 1457 1458 1458 1458 1457 1457 1457 1457 1456 1456 1456 1456 1456 1456 1456 1455 1455 1454 1454 1454 1453 1452 1451 1451 1450 1450 1449 1448 1448 1447 1446 1444 1443 1442 1440 1439 1438 1436 1435
1455 1455 1455 1456 1456 1455 1455 1455 1456 1456 1455 1455 1455 1455 1455 1455 1454 1454 1454 1453 1453 1452 1452 1451 1451 1451 1450 1449 1449 1448 1448 1447 1446 1445 1445 1444 1442 1441 1440 1438 1437 1435 1434 1433
1453 1453 1452 1453 1453 1453 1453 1453 1453 1454 1454 1454 1454 1454 1454 1453 1453 1452 1452 1451 1451 1450 1449 1449 1448 1448 1448 1447 1446 1446 1445 1445 1444 1443 1442 1441 1440 1439 1438 1436 1435 1433 1432 1430
1450 1450 1450 1451 1451 1451 1451 1451 1451 1452 1452 1452 1451 1452 1452 1451 1451 1450 1450 1449 1449 1448 1447 1447 1446 1446 1445 1445 1445 1444 1443 1442 1442 1441 1440 1439 1438 1437 1435 1434 1433 1431 1430 1428
1448 1449 1449 1449 1449 1449 1450 1450 1450 1450 1450 1450 1450 1450 1449 1449 1449 1448 1448 1447 1447 1446 1446 1445 1444 1444 1443 1443 1443 1442 1441 1440 1439 1439 1438 1437 1435 1434 1433 1432 1430 1429 1427 1425